Weather History for Harlan, KY

Change the Weather History Date:

Wednesday, September 25, 2013

  Actual Average (KLOZ) Record (KLOZ)
Temperature  
Mean Temperature 64 °F 65 °F  
Max Temperature 68 °F 76 °F 90 °F (1961)
Min Temperature 59 °F 53 °F 35 °F (1965)
Degree Days  
Heating Degree Days 2 3  
Month to date heating degree days 26  
Since 1 July heating degree days 27  
Cooling Degree Days 0 3  
Month to date cooling degree days 132  
Year to date cooling degree days 1156  
Growing Degree Days 14 (Base 50)    
Moisture  
Dew Point 60 °F    
Average Humidity 93    
Maximum Humidity 100    
Minimum Humidity 78    
Precipitation  
Precipitation 0.00 in 0.11 in 1.42 in (2000)
Month to date precipitation 2.80  
Year to date precipitation 35.48  
Sea Level Pressure  
Sea Level Pressure 29.91 in    
Wind  
Wind Speed 1 mph (ENE)    
Max Wind Speed 5 mph    
Max Gust Speed -    
Visibility 7 miles    
Events      
T = Trace of Precipitation, MM = Missing Value Source: NWS Daily Summary

Daily Weather History Graph

Daily Weather History Graph

Search for Another Location

Airport:

Trip Planner

Search our weather history database for the weather conditions in past years. The results will help you decide how hot, cold, wet, or windy it might be!

Date:

Astronomy

Sep. 25, 2013 Rise Set
Actual Time 7:23 AM EDT 7:25 PM EDT
Civil Twilight 6:58 AM EDT 7:51 PM EDT
Nautical Twilight 6:27 AM EDT 8:21 PM EDT
Astronomical Twilight 5:57 AM EDT 8:51 PM EDT
Moon 11:38 PM EDT (9/25) 1:20 PM EDT (9/25)
Length of Visible Light 12h 53m
Length of Day
12h 01m
Waning Gibbous, 64% of the Moon is Illuminated
Sep 25
Waning Gibbous
Sep 26
Last Quarter
Oct 4
New
Oct 11
First Quarter
Oct 18
Full

Hourly Weather History & Observations

Time (EDT) Temp. Dew Point Humidity Pressure Visibility Wind Dir Wind Speed Gust Speed Precip Events Conditions
12:15 AM 60.8 °F 59.0 °F 94% 29.94 in 10.0 mi Calm Calm - N/A   Mostly Cloudy
12:35 AM 60.8 °F 59.0 °F 94% 29.94 in 10.0 mi Calm Calm - N/A   Mostly Cloudy
12:55 AM 60.8 °F 59.0 °F 94% 29.94 in 10.0 mi Calm Calm - N/A   Overcast
1:15 AM 60.8 °F 59.0 °F 94% 29.93 in 7.0 mi Calm Calm - N/A   Overcast
1:35 AM 60.8 °F 59.0 °F 94% 29.93 in 7.0 mi East 3.5 mph - N/A   Overcast
1:55 AM 60.8 °F 59.0 °F 94% 29.92 in 7.0 mi Calm Calm - N/A   Overcast
2:15 AM 60.8 °F 59.0 °F 94% 29.92 in 10.0 mi Calm Calm - N/A   Overcast
2:35 AM 60.8 °F 59.0 °F 94% 29.92 in 10.0 mi Calm Calm - N/A   Overcast
2:55 AM 60.8 °F 59.0 °F 94% 29.91 in 10.0 mi ENE 4.6 mph - N/A   Overcast
3:15 AM 60.8 °F 59.0 °F 94% 29.91 in 10.0 mi ESE 3.5 mph - N/A   Overcast
3:35 AM 60.8 °F 59.0 °F 94% 29.91 in 7.0 mi Calm Calm - N/A   Overcast
3:55 AM 60.8 °F 59.0 °F 94% 29.91 in 10.0 mi Calm Calm - N/A   Overcast
4:15 AM 60.8 °F 59.0 °F 94% 29.90 in 10.0 mi NE 4.6 mph - N/A   Mostly Cloudy
4:35 AM 60.8 °F 59.0 °F 94% 29.91 in 10.0 mi Calm Calm - N/A   Overcast
4:55 AM 60.8 °F 59.0 °F 94% 29.89 in 10.0 mi South 4.6 mph - N/A   Mostly Cloudy
5:15 AM 59.0 °F 59.0 °F 100% 29.90 in 7.0 mi Calm Calm - N/A   Scattered Clouds
5:35 AM 60.8 °F 59.0 °F 94% 29.90 in 10.0 mi Calm Calm - N/A   Scattered Clouds
5:55 AM 59.0 °F 59.0 °F 100% 29.90 in 7.0 mi Calm Calm - N/A   Scattered Clouds
6:15 AM 59.0 °F 59.0 °F 100% 29.91 in 7.0 mi Calm Calm - N/A   Mostly Cloudy
6:35 AM 59.0 °F 59.0 °F 100% 29.90 in 5.0 mi Calm Calm - N/A   Overcast
6:55 AM 59.0 °F 59.0 °F 100% 29.90 in 4.0 mi Calm Calm - N/A   Overcast
7:15 AM 59.0 °F 59.0 °F 100% 29.90 in 5.0 mi ENE 3.5 mph - N/A   Overcast
7:35 AM 59.0 °F 59.0 °F 100% 29.90 in 5.0 mi Calm Calm - N/A   Scattered Clouds
7:55 AM 60.8 °F 59.0 °F 94% 29.91 in 5.0 mi Calm Calm - N/A   Mostly Cloudy
8:15 AM 60.8 °F 59.0 °F 94% 29.91 in 4.0 mi Calm Calm - N/A   Overcast
8:35 AM 60.8 °F 59.0 °F 94% 29.91 in 1.2 mi Calm Calm - N/A   Overcast
8:55 AM 60.8 °F 59.0 °F 94% 29.91 in 1.0 mi Calm Calm - N/A   Overcast
9:15 AM 60.8 °F 59.0 °F 94% 29.91 in 2.5 mi Calm Calm - N/A   Mostly Cloudy
9:35 AM 60.8 °F 60.8 °F 100% 29.92 in 3.0 mi Calm Calm - N/A   Scattered Clouds
9:55 AM 60.8 °F 60.8 °F 100% 29.93 in 4.0 mi Calm Calm - N/A   Scattered Clouds
10:15 AM 62.6 °F 60.8 °F 94% 29.93 in 4.0 mi Calm Calm - N/A   Mostly Cloudy
10:35 AM 62.6 °F 60.8 °F 94% 29.93 in 1.8 mi Calm Calm - N/A   Overcast
10:55 AM 62.6 °F 60.8 °F 94% 29.92 in 1.0 mi Calm Calm - N/A   Overcast
11:15 AM 64.4 °F 60.8 °F 88% 29.93 in 10.0 mi Calm Calm - N/A   Mostly Cloudy
11:35 AM 64.4 °F 60.8 °F 88% 29.93 in 10.0 mi Calm Calm - N/A   Mostly Cloudy
11:55 AM 66.2 °F 59.0 °F 78% 29.94 in 10.0 mi Calm Calm - N/A   Overcast
12:15 PM 64.4 °F 60.8 °F 88% 29.93 in 10.0 mi Calm Calm - N/A   Overcast
12:35 PM 64.4 °F 60.8 °F 88% 29.93 in 10.0 mi Calm Calm - N/A   Overcast
12:55 PM 64.4 °F 60.8 °F 88% 29.93 in 10.0 mi Calm Calm - N/A   Overcast
1:15 PM 64.4 °F 60.8 °F 88% 29.92 in 10.0 mi Calm Calm - N/A   Overcast
1:35 PM 66.2 °F 60.8 °F 83% 29.92 in 10.0 mi Calm Calm - N/A   Overcast
2:15 PM 64.4 °F 60.8 °F 88% 29.91 in 10.0 mi East 3.5 mph - N/A   Overcast
2:55 PM 66.2 °F 60.8 °F 83% 29.90 in 10.0 mi Calm Calm - N/A   Overcast
3:15 PM 66.2 °F 60.8 °F 83% 29.89 in 10.0 mi Calm Calm - N/A   Overcast
3:35 PM 64.4 °F 62.6 °F 94% 29.89 in 7.0 mi Calm Calm - N/A   Overcast
3:55 PM 64.4 °F 62.6 °F 94% 29.89 in 7.0 mi NE 3.5 mph - N/A   Overcast
4:15 PM 68.0 °F 62.6 °F 83% 29.89 in 10.0 mi Calm Calm - N/A   Mostly Cloudy
4:35 PM 68.0 °F 60.8 °F 78% 29.89 in 10.0 mi Calm Calm - N/A   Scattered Clouds
4:55 PM 68.0 °F 60.8 °F 78% 29.89 in 10.0 mi Calm Calm - N/A   Mostly Cloudy
5:15 PM 68.0 °F 62.6 °F 83% 29.89 in 10.0 mi NNW 3.5 mph - N/A   Overcast
5:35 PM 68.0 °F 62.6 °F 83% 29.89 in 10.0 mi Calm Calm - N/A   Overcast
5:55 PM 66.2 °F 62.6 °F 88% 29.89 in 10.0 mi Calm Calm - N/A   Overcast
6:15 PM 66.2 °F 62.6 °F 88% 29.89 in 10.0 mi Calm Calm - N/A   Mostly Cloudy
6:35 PM 66.2 °F 62.6 °F 88% 29.90 in 10.0 mi Calm Calm - N/A   Mostly Cloudy
6:55 PM 64.4 °F 62.6 °F 94% 29.90 in 7.0 mi Calm Calm - N/A   Scattered Clouds
7:15 PM 64.4 °F 62.6 °F 94% 29.90 in 7.0 mi Calm Calm - N/A   Scattered Clouds
7:35 PM 64.4 °F 62.6 °F 94% 29.90 in 0.8 mi Calm Calm - N/A   Overcast
7:55 PM 62.6 °F 62.6 °F 100% 29.90 in 2.0 mi Calm Calm - N/A   Overcast
8:15 PM 64.4 °F 62.6 °F 94% 29.90 in 5.0 mi Calm Calm - N/A   Overcast
8:35 PM 62.6 °F 62.6 °F 100% 29.91 in 0.8 mi Calm Calm - N/A   Overcast
8:55 PM 62.6 °F 62.6 °F 100% 29.91 in 3.0 mi Calm Calm - N/A   Overcast
9:15 PM 62.6 °F 62.6 °F 100% 29.91 in 2.5 mi Calm Calm - N/A   Overcast
9:35 PM 62.6 °F 60.8 °F 94% 29.92 in 2.0 mi Calm Calm - N/A   Overcast
9:55 PM 62.6 °F 60.8 °F 94% 29.92 in 1.2 mi Calm Calm - N/A   Overcast
10:15 PM 62.6 °F 60.8 °F 94% 29.92 in 7.0 mi Calm Calm - N/A   Overcast
10:35 PM 62.6 °F 60.8 °F 94% 29.92 in 4.0 mi Calm Calm - N/A   Overcast
10:55 PM 62.6 °F 60.8 °F 94% 29.93 in 4.0 mi Calm Calm - N/A   Overcast
11:15 PM 62.6 °F 60.8 °F 94% 29.93 in 2.0 mi Calm Calm - N/A   Overcast
11:35 PM 62.6 °F 60.8 °F 94% 29.93 in 1.2 mi Calm Calm - N/A   Overcast
11:55 PM 62.6 °F 60.8 °F 94% 29.94 in 4.0 mi Calm Calm - N/A   Overcast